Location: Savignano sul Rubicone
(44.0950°N, 12.4090°E)
Time: 09:39:28
(UTC+02:00)

Envisat - Visible Passes

Search period start: 23 September 2020 00:00
Search period end: 03 October 2020 00:00
Orbit: 764 x 766 km, 98.1° (Epoch: 23 September)

Date Brightness Start Highest point End Pass type
(mag) Time Alt. Az. Time Alt. Az. Time Alt. Az.
23 Sep 6.1 19:41:57 10° SW 19:45:14 17° W 19:48:32 10° NW visible
24 Sep 6.0 06:09:09 10° NE 06:12:42 19° E 06:16:15 10° SE visible
26 Sep 6.0 19:29:54 10° SW 19:33:45 22° W 19:37:38 10° NW visible
27 Sep 6.2 05:58:21 10° NE 06:01:13 15° E 06:04:04 10° ESE visible
28 Sep 6.5 19:57:27 10° WSW 19:59:30 12° W 20:01:33 10° WNW visible
29 Sep 5.6 06:22:42 10° NE 06:26:55 26° E 06:31:06 10° SSE visible
29 Sep 5.6 19:18:02 10° SSW 19:22:18 27° W 19:26:35 10° NW visible
30 Sep 6.5 05:47:59 10° ENE 05:49:43 12° E 05:51:26 10° ESE visible
01 Oct 6.2 19:44:58 10° SW 19:48:00 16° W 19:51:02 10° NW visible
02 Oct 6.0 06:11:42 10° NE 06:15:28 20° E 06:19:12 10° SE visible
